FW3899 Weather Reports


Display with metric or nautical units.
time (UTC)temp
F
wind
direction
speed
MPH
gust
MPH
rain 1hr
in
rain 24hr
in
rain mn
in
humidity
%
barometer
mb
20260504191532 52 230 7.0 12.0 0.00 0.02 0.02 88 1012.1
20260504190031 52 255 5.0 10.0 0.00 0.02 0.02 89 1012.2
20260504184532 52 231 7.0 13.0 0.00 0.02 0.02 88 1012.1
20260504183030 52 246 10.0 14.0 0.00 0.02 0.02 89 1012.0
20260504181529 52 242 11.0 15.0 0.00 0.02 0.02 89 1012.2
20260504180028 52 250 8.0 14.0 0.00 0.02 0.02 89 1012.1
20260504174528 53 230 8.0 15.0 0.00 0.02 0.02 89 1012.2
20260504173035 53 213 12.0 18.0 0.01 0.02 0.02 90 1012.3
20260504171526 53 243 14.0 20.0 0.01 0.02 0.02 90 1012.2
20260504160119 55 254 17.0 26.0 0.01 0.02 0.01 88 1012.3
20260504081518 61 68 1.0 6.0 0.00 0.12 0.00 78 1013.4
20260504044551 51 266 0.0 0.0 0.00 0.12 0.00 89 1013.4
20260504043036 51 266 0.0 2.0 0.00 0.12 0.00 89 1013.4
20260504041531 50 267 0.0 2.0 0.00 0.12 0.00 89 1013.3
20260504040033 50 267 0.0 1.0 0.00 0.12 0.00 89 1013.4
20260504034538 50 267 0.0 2.0 0.00 0.12 0.00 88 1013.5
20260504033039 51 300 0.0 2.0 0.00 0.12 0.00 88 1013.5
20260504031528 50 301 2.0 4.0 0.00 0.12 0.00 89 1013.6
20260504030026 50 202 0.0 1.0 0.00 0.12 0.00 89 1013.8
20260504024525 50 202 0.0 3.0 0.00 0.12 0.00 89 1013.9
20260504023025 50 191 0.0 4.0 0.00 0.12 0.00 89 1014.1
20260504021531 50 228 2.0 3.0 0.00 0.12 0.00 89 1013.9
20260504020021 50 228 0.0 2.0 0.00 0.12 0.00 89 1013.9
20260504014521 50 228 0.0 3.0 0.00 0.12 0.00 88 1014.0
20260504013028 50 228 0.0 2.0 0.00 0.12 0.00 88 1013.8
20260504011518 51 228 0.0 2.0 0.00 0.12 0.00 87 1013.9
20260504010020 51 228 0.0 0.0 0.00 0.12 0.00 87 1013.9
20260504004517 51 228 0.0 1.0 0.00 0.12 0.00 87 1014.0
20260504003015 51 228 1.0 4.0 0.00 0.12 0.00 86 1014.0
20260504001513 51 245 2.0 3.0 0.00 0.12 0.00 86 1014.1
20260504000014 50 270 0.0 2.0 0.00 0.12 0.00 87 1014.2
20260503234511 51 301 0.0 1.0 0.00 0.12 0.00 85 1014.3
20260503233009 51 301 0.0 4.0 0.00 0.12 0.00 86 1014.3
20260503231509 51 262 3.0 5.0 0.00 0.12 0.00 88 1014.5
20260503230004 52 209 2.0 4.0 0.00 0.12 0.00 87 1014.4
20260503224501 55 36 0.0 3.0 0.00 0.12 0.00 87 1014.2
20260503223059 55 176 1.0 8.0 0.00 0.12 0.00 83 1014.4
20260503221556 54 217 4.0 7.0 0.00 0.12 0.00 85 1014.2
20260503220109 54 193 5.0 9.0 0.00 0.12 0.00 84 1014.2
20260503214554 53 162 0.0 0.0 0.00 0.12 0.12 87 1013.9
20260503213053 53 149 0.0 0.0 0.00 0.12 0.12 87 1013.7
20260503211606 52 149 1.0 4.0 0.00 0.12 0.12 89 1013.7
20260503210056 52 172 1.0 4.0 0.00 0.12 0.12 90 1013.7
20260503204556 51 172 0.0 3.0 0.00 0.12 0.12 90 1013.9
20260503203051 50 172 0.0 3.0 0.00 0.12 0.12 91 1014.1
20260503201551 50 203 3.0 4.0 0.00 0.12 0.12 90 1014.1
20260503200050 50 204 2.0 3.0 0.00 0.12 0.12 89 1014.0
20260503194549 51 204 2.0 4.0 0.00 0.12 0.12 89 1014.0
20260503193050 52 204 1.0 3.0 0.00 0.12 0.12 90 1013.8